Regional Weather Roundup
Issued by NWS State College, PA

Home | Current Version | Previous Version | Text Only | Print | Product List | Glossary Off
Versions: 1 2 3 4 5 6 7 8 9 10 11 12 13 14 15 16 17 18 19 20 21 22 23 24 25 26 27 28 29 30 31 32 33 34 35 36 37 38 39 40 41 42 43 44 45 46 47 48 49 50

000
ASUS41 KCTP 282010
RWRCTP

REGIONAL WEATHER ROUNDUP
NATIONAL WEATHER SERVICE STATE COLLEGE PA
400 PM EDT SAT MAY 28 2016

Note: "fair" indicates few or no clouds below 12,000 feet with no
significant weather and/or obstructions to visibility.

* = STATION THAT DOES NOT REPORT PRECIPITATION /E.G. RAIN...SNOW...ETC/
    THUNDER OR FOG.

PAZ002>004-007>009-013>016-020>023-029>032-282100-
WESTERN PENNSYLVANIA

CITY           SKY/WX    TMP DP  RH WIND       PRES   REMARKS
ERIE           CLOUDY    73  66  78 SW10      30.09R
MEADVILLE      LGT RAIN  73  65  75 CALM      30.11R
FRANKLIN*      PTSUNNY   84  64  51 SW9       30.13F
NEW CASTLE     MOCLDY    86  65  49 SW7       30.09F
BEAVER COUNTY  PTSUNNY   84  66  54 S8        30.10F
BUTLER*        SUNNY     88  64  45 SW7       30.13F
PITTSBURGH INT MOSUNNY   88  63  43 VRB6      30.09F
PITTSBURGH     MOSUNNY   86  62  44 SW5       30.09F
INDIANA*       PTSUNNY   88  68  51 S8G16     30.15S
LATROBE        MOSUNNY   86  64  48 S12G20    30.12F
WASHINGTON CO* MOSUNNY   84  66  54 S6        30.11F
$$

PAZ004>006-010>012-017>019-024>028-033>037-041-042-045-046-049>053-282100-
CENTRAL PENNSYLVANIA

CITY           SKY/WX    TMP DP  RH WIND       PRES   REMARKS
BRADFORD         N/A    N/A N/A N/A MISG      30.16
DUBOIS         MOSUNNY   86  63  45 VRB5      30.12F
CLEARFIELD     PTSUNNY   84  64  50 VRB7      30.14S
JOHNSTOWN      CLOUDY    81  63  54 S6        30.17F
ALTOONA        MOSUNNY   85  62  46 SE5       30.13F
STATE COLLEGE  MOSUNNY   86  68  54 CALM      30.12F
WILLIAMSPORT   CLOUDY    87  65  47 S9        30.06F
SELINSGROVE    PTSUNNY   90  64  42 NW7       30.09S
FT INDIANTOWN  SUNNY     89  66  46 S7        30.09F
CAPITAL CITY   MOSUNNY   91  67  44 W10       30.08F
HARRISBURG     MOSUNNY   90  68  48 VRB3      30.08F
YORK           CLOUDY    85  68  56 W7        30.10F
$$

PAZ038>040-043-044-047-048-054-055-060>062-067>071-282100-
EASTERN PENNSYLVANIA

CITY           SKY/WX    TMP DP  RH WIND       PRES   REMARKS
SCRANTON       PTSUNNY   87  63  44 CALM      30.10S
MOUNT POCONO   LGT RAIN  71  67  87 E12       30.16F
ALLENTOWN      PTSUNNY   91  68  46 SW12      30.08F HX  95
QUAKERTOWN*    PTCLDY    90  68  48 SW12      30.11F
READING        MOSUNNY   90  66  45 S13G21    30.08F
LANCASTER      MOSUNNY   87  69  54 S12       30.10F
COATESVILLE    CLEAR     86  64  48 VRB6      30.15F
POTTSTOWN      MOSUNNY   87  67  51 SW10G17   30.12F
BLUE BELL      MOSUNNY   86  68  54 S7        30.10F
DOYLESTOWN     SUNNY     87  64  46 SW10G17   30.10F
WILLOW GROVE   NOT AVBL
NORTH PHILA    SUNNY     90  66  45 S10G22    30.12S
PHILADELPHIA   MOSUNNY   90  64  42 SW16      30.11F
$$



USA.gov is the U.S. government's official web portal to all federal, state and local government web resources and services.